Regional Weather Roundup
Issued by NWS Goodland, KS

Home | Current Version | Previous Version | Graphics & Text | Print | Product List | Glossary On
Versions: 1 2 3 4 5 6 7 8 9 10 11 12 13 14 15 16 17 18 19 20 21 22 23 24 25 26 27 28 29 30 31 32 33 34 35 36 37 38 39 40 41 42 43 44 45 46 47 48 49 50
000
ASUS43 KGLD 260108
RWRGLD

GOODLAND FORECAST AREA HOURLY WEATHER ROUNDUP
NATIONAL WEATHER SERVICE GOODLAND KS
600 PM MST TUE NOV 25 2014

...OFFICIAL OBSERVATIONS...

CITY           SKY/WX    TMP DP  RH WIND       PRES   REMARKS
GOODLAND KS    CLOUDY    45  21  38 N12       29.91R
HILL CITY KS   CLOUDY    45  13  27 SW6       29.88S
IMPERIAL NEB   CLOUDY    43  30  60 NW21G29   29.89R
MCCOOK NEB     CLOUDY    41  21  44 NE6       29.86R
AKRON CO       CLOUDY    43  22  43 N16       29.90R
BURLINGTON CO  CLOUDY    49  19  30 NW22G29   29.91R
LIMON CO       CLOUDY    35  16  45 W8        29.92R
$$

...UNOFFICIAL OBSERVATIONS...

CITY           SKY/WX    TMP DP  RH WIND       PRES   REMARKS
COLBY KS       CLOUDY    48  28  46 W12G29    29.90S
GOVE KS          N/A     37  32  82 MISG        N/A
NORTON KS      CLOUDY    43   9  24 SW5       29.85R
SHARON SPRINGS   N/A     40  15  35 CALM        N/A
TRENTON NEB      N/A     47  32  56 NW15        N/A
YUMA CO          N/A     42  24  49 N10         N/A
$$



USA.gov is the U.S. government's official web portal to all federal, state and local government web resources and services.